Location: Hurstbourne Priors
(51.2000°N, 1.3667°W)
Time: 19:31:39
(UTC+00:00)

Transit 4A - Pass Details

Date: 23 April 2021
Orbit: 870 x 974 km, 66.8° (Epoch: 09 May)

Event Time Altitude Azimuth Distance (km) Brightness Sun altitude
Rises 23:43:46 0° 228° (SW) 3,617 - -25.8°
Reaches altitude 10° 23:46:22 10° 232° (SW) 2,661 - -25.8°
Exits shadow 23:49:50 34° 245° (WSW) 1,496 8.8 -25.9°
Maximum altitude 23:52:31 63° 313° (NW) 1,034 8.2 -25.9°
Drops below altitude 10° 23:58:31 10° 35° (NE) 2,601 10.9 -25.9°
Sets 00:01:02 0° 38° (NE) 3,530 11.7 -25.9°
